Weather Roundup
Issued by NWS Chicago, IL

Home | Current Version | Previous Version | Graphics & Text | Print | Product List | Glossary On
Versions: 1 2 3 4 5 6 7 8 9 10 11 12 13 14 15 16 17 18 19 20 21 22 23 24 25 26 27 28 29 30 31 32 33 34 35 36 37 38 39 40 41 42 43 44 45 46 47 48 49 50
000
NZUS59 KLOT 221908
HRRLOT

CHICAGO AREA WEATHER ROUNDUP
NATIONAL WEATHER SERVICE CHICAGO/ROMEOVILLE IL
200 PM CDT SUN APR 22 2018

NOTE: "FAIR" INDICATES FEW OR NO CLOUDS BELOW 12,000 FEET WITH NO
SIGNIFICANT WEATHER AND/OR OBSTRUCTIONS TO VISIBILITY.

* THESE STATIONS ARE NOT UNDER NWS QUALITY CONTROL. THEY ALSO MAY NOT
  REPORT WEATHER SUCH AS PRECIPITATION OR FOG.

ILZ005-006-012>014-019>023-222000-
NORTHEAST ILLINOIS

CITY           SKY/WX    TMP DP  RH WIND       PRES   REMARKS
OHARE          PTSUNNY   60  24  25 E15       30.31F
MIDWAY         PTSUNNY   60  25  26 NE16G25   30.31F
AURORA           N/A     63  24  22 E16       30.28F
LANSING*         N/A     61  35  36 NE12G18   30.28F
JOLIET*          N/A     64  27  24 NE16      30.27F
WAUKEGAN       NOT AVBL
DUPAGE AIRPORT   N/A     61  24  24 E15       30.29F
WHEELING         N/A     58  27  30 E9        30.34F
KANKAKEE*        N/A     67  21  17 E16G24    30.25F
MORRIS*          N/A     64  27  24 E16       30.25F
LEWIS AIRPORT*   N/A     62  28  27 E16G23    30.27F
NORTHERLY ISL    N/A     49  33  54 N10         N/A
$$

WIZ051-052-058>065-066-070>072-222000-
SOUTHEAST WISCONSIN

CITY           SKY/WX    TMP DP  RH WIND       PRES   REMARKS
MILWAUKEE      PTSUNNY   53  27  36 NE9       30.37F
KENOSHA*         N/A     57  27  31 E13       30.34F
RACINE*          N/A     56  25  30 NE10      30.36F
BURLINGTON       N/A     60  26  27 E10G16    30.33F
WAUKESHA       SUNNY     54  27  35 E10       30.35F
WEST BEND        N/A     59  23  25 E9        30.35F
$$

INZ001>003-010>013-019-020-222000-
NORTHWEST INDIANA

CITY           SKY/WX    TMP DP  RH WIND       PRES   REMARKS
GARY*          PTSUNNY   57  28  33 NE13      30.30F
MICHIGAN CITY* NOT AVBL
RENSSELAER*    NOT AVBL
VALPARAISO       N/A     66  20  17 E17G26    30.28F
$$

LMZ740>746-222000-
SOUTHERN LAKE MICHIGAN

STATION/POSITION TIME  SKY/WX   TEMP WIND        PRES    VSBY
                                AIR  DIR/SP/G
                 (UTC)          (F)  (DEG/KT/KT) (MB)    (MI)
HARRISON CRIB    1840            42  360/ 10/ 12   N/A
BURNHAM HARBOR   1900            50   10/ 11/ 13   N/A
CALUMET HARBOR   1848            48  360/ 11/ 16 1025.8F
BURNS HARBOR     1840            47   60/  8/ 10 1026.8S
MICHIGAN CITY    1840            51   20/ 12/ 15   N/A
$$

ABBREVIATIONS USED IN REMARKS
   TC - TEMPERATURE IN CELSIUS
  WCI - WIND CHILL INDEX
   HX - HEAT INDEX
  VSB - VISIBILITY
$$




USA.gov is the U.S. government's official web portal to all federal, state and local government web resources and services.